Weather in Druzhba

Russia / Republic of Dagestan     42°14′28″N   47°59′50″E
temp.,
°C
wind,
m/s
gust,
m/s
humid.,
%
clouds,
%
prec.,
mm/h
press.,
hPa
HPBL,
m
19 april, mon
mon1900:00+12ne1185100 0.1 101612
03:00+13ssw118189 0.1 101611
06:00+14ssw117692 0.0 101617
09:00+18ese2255100 0.0 1016522
12:00+23e564117 0.0 1014933
15:00+20e444383 0.0 1014537
18:00+16ese235174 0.0 1014141
21:00+15s1159100 0.0 101516
20 april, tue
tue2000:00+14wnw0168100 0.0 101615
03:00+13e117397 0.0 101518
06:00+14sse116997 0.0 101421
09:00+19se3551100 0.0 1013620
12:00+20e3350100 0.0 1010589
15:00+21ese4652100 0.0 1007437
18:00+17ese3466100 0.0 1007115
21:00+17sse2364100 0.0 100680
21 april, wed
wed2100:00+13n2378100 0.0 100897
03:00+12n1583100 0.1 1010130
06:00+13s3484100 0.0 1014164
09:00+18n2462100 0.0 1015776
12:00+21nne774598 0.0 1015997
15:00+19n685395 0.1 1015890
18:00+16nw1469100 1.0 1017188
21:00+14wsw1176100 1.0 101922
22 april, thu
thu2200:00+13w238019 0.1 1020137
03:00+12wsw1181100 0.1 101911
06:00+12sw0179100 0.0 102157
09:00+17nne34592 0.0 1021952
12:00+18nne664914 0.0 10211106
15:00+17n565334 0.0 10221083
18:00+14n3464100 0.0 1023511
21:00+14wnw126695 0.0 1023175
23 april, fri
fri2300:00+13nw116944 0.0 102132
03:00+12wnw227357 0.0 102128
06:00+13wnw137045 0.0 1021173
09:00+16n776078 0.0 10221212
12:00+14nnw586898 0.0 1023823
15:00+16n675369 0.0 10221363
18:00+15nnw235927 0.0 1023122
21:00+11sw21725 0.0 102415